Location: Limoges
(45.8354°N, 1.2645°E)
Time: 18:39:06
(UTC+01:00)

ISS - Pass Details

Date: 17 November 2025
Orbit: 416 x 421 km, 51.6° (Epoch: 05 December)

Event Time Altitude Azimuth Distance (km) Brightness Sun altitude
Rises 19:43:56 0° 270° (W) 2,365 1.5 -24.6°
Reaches altitude 10° 19:46:09 10° 279° (W) 1,500 0.1 -25.0°
Enters shadow 19:48:06 26° 305° (NW) 861 -1.7 -25.4°
